{"data":{"norad_id":64168,"epoch":"2026-05-25T03:02:05.787168Z","epoch_age_seconds":57377,"freshness":"FRESH","line1":"1 64168U 25112Y   26145.12645587 -.00002883  00000+0 -19585-3 0  9995","line2":"2 64168  97.4525 196.5620 0001926 138.6154 221.5219 15.05647530 54810","mean_motion":15.0564753,"eccentricity":0.0001926,"inclination_deg":97.4525,"raan_deg":196.562,"arg_perigee_deg":138.6154,"mean_anomaly_deg":221.5219,"bstar":-0.00019585,"rev_number":5481,"period_min":95.639913811701,"perigee_km":548.18446403589,"apogee_km":550.85299702329,"semimajor_km":6927.6557305296,"source":"CELESTRAK","updated_at":"2026-05-25T13:38:20.307920Z"}}